Powrót do katalogu

TITAN 3C TRANSTAGE DEB

AktywnyMEO
NORAD 39297·DEBRIS·🇺🇸 United States

Wystrzelony Sep 26, 1968 z Cape Canaveral Space Force Station

Loading…

Następne Przeloty (najbliższe 24 godziny)

TLE

ŚwieżeSource: Space-Track

Epoka: Sep 13, 2026, 16:04 UTC

1 39297U 68081AH  26256.66965602 -.00000219  00000-0  00000-0 0  9997
2 39297   1.7276  30.4141 0183864 306.2242  52.5957  1.00369604 17366

Śledź TITAN 3C TRANSTAGE DEB w czasie rzeczywistym z AllMySat

Download on the App Store